KD9CCP Weather Reports


time (UTC)temp
C
wind
direction
speed
KPH
gust
KPH
rain 1hr
cm
rain 24hr
cm
rain mn
cm
humidity
%
barometer
mb
20260906161520 23 250 1.6 1.6 0.00 0.00 0.00 48 1024.5
20260906161019 23 174 1.6 1.6 0.00 0.00 0.00 47 1024.5
20260906160518 23 223 1.6 1.6 0.00 0.00 0.00 50 1024.6
20260906160017 23 217 1.6 3.2 0.00 0.00 0.00 50 1024.1
20260906155515 23 214 3.2 3.2 0.00 0.00 0.00 51 1024.1
20260906155011 23 222 0.0 1.6 0.00 0.00 0.00 51 1024.2
20260906154506 22 232 3.2 3.2 0.00 0.00 0.00 52 1024.3
20260906154004 22 230 1.6 3.2 0.00 0.00 0.00 53 1024.3
20260906153503 22 233 1.6 1.6 0.00 0.00 0.00 54 1024.3
20260906152959 21 221 1.6 1.6 0.00 0.00 0.00 55 1024.2
20260906152453 21 232 3.2 3.2 0.00 0.00 0.00 55 1024.5
20260906151953 21 229 1.6 1.6 0.00 0.00 0.00 57 1024.4
20260906151448 21 194 1.6 1.6 0.00 0.00 0.00 56 1024.5
20260906150944 21 229 1.6 3.2 0.00 0.00 0.00 55 1024.5
20260906150439 20 237 4.8 4.8 0.00 0.00 0.00 57 1024.5
20260906145938 20 228 4.8 4.8 0.00 0.00 0.00 57 1024.5
20260906145438 20 176 0.0 1.6 0.00 0.00 0.00 58 1024.4
20260906144933 20 231 1.6 1.6 0.00 0.00 0.00 61 1024.5
20260906144433 20 221 1.6 3.2 0.00 0.00 0.00 60 1024.4
20260906143929 20 229 4.8 4.8 0.00 0.00 0.00 61 1024.4
20260906143424 19 223 0.0 1.6 0.00 0.00 0.00 61 1024.6
20260906142920 19 167 3.2 3.2 0.00 0.00 0.00 62 1024.5
20260906142419 18 215 3.2 3.2 0.00 0.00 0.00 62 1024.7
20260906141914 18 218 1.6 3.2 0.00 0.00 0.00 63 1024.7
20260906141414 18 217 1.6 3.2 0.00 0.00 0.00 64 1024.7
20260906140909 18 207 0.0 1.6 0.00 0.00 0.00 67 1024.8
20260906140403 17 214 1.6 3.2 0.00 0.00 0.00 68 1024.9
20260906135901 17 219 0.0 0.0 0.00 0.00 0.00 69 1024.7
20260906135400 17 218 0.0 0.0 0.00 0.00 0.00 70 1024.7
20260906134856 17 220 0.0 0.0 0.00 0.00 0.00 70 1024.9
20260906134351 16 221 0.0 0.0 0.00 0.00 0.00 72 1024.7
20260906133846 16 221 0.0 0.0 0.00 0.00 0.00 73 1024.7
20260906133342 16 242 0.0 0.0 0.00 0.00 0.00 81 1024.8
20260906132837 16 17 0.0 0.0 0.00 0.00 0.00 84 1024.7
20260906132332 15 18 0.0 0.0 0.00 0.00 0.00 85 1024.6
20260906131828 15 18 0.0 0.0 0.00 0.00 0.00 85 1024.8
20260906131323 15 18 0.0 0.0 0.00 0.00 0.00 85 1024.7
20260906130819 15 18 0.0 0.0 0.00 0.00 0.00 85 1024.7
20260906130319 15 18 0.0 0.0 0.00 0.00 0.00 85 1024.8
20260906125818 15 18 0.0 0.0 0.00 0.00 0.00 85 1024.7
20260906125315 14 18 0.0 0.0 0.00 0.00 0.00 84 1024.6
20260906124810 14 18 0.0 0.0 0.00 0.00 0.00 84 1024.7
20260906124306 14 18 0.0 0.0 0.00 0.00 0.00 84 1024.6
20260906123805 14 18 0.0 0.0 0.00 0.00 0.00 84 1024.5
20260906123300 14 18 0.0 0.0 0.00 0.00 0.00 84 1024.5
20260906122800 14 18 0.0 0.0 0.00 0.00 0.00 83 1024.6
20260906122255 13 18 0.0 0.0 0.00 0.00 0.00 83 1024.6
20260906121752 13 18 0.0 0.0 0.00 0.00 0.00 83 1024.5
20260906121248 13 18 0.0 0.0 0.00 0.00 0.00 83 1024.4
20260906120743 13 18 0.0 0.0 0.00 0.00 0.00 83 1024.3
20260906120240 13 18 0.0 0.0 0.00 0.00 0.00 82 1024.3
20260906115735 13 18 0.0 0.0 0.00 0.00 0.00 82 1024.0
20260906115230 13 18 0.0 0.0 0.00 0.00 0.00 82 1024.0
20260906114729 13 18 0.0 0.0 0.00 0.00 0.00 82 1024.1
20260906114225 13 18 0.0 0.0 0.00 0.00 0.00 82 1024.0
20260906113720 13 18 0.0 0.0 0.00 0.00 0.00 82 1024.0
20260906113219 13 18 0.0 0.0 0.00 0.00 0.00 82 1024.0
20260906112719 13 18 0.0 0.0 0.00 0.00 0.00 82 1024.0
20260906112216 13 18 0.0 0.0 0.00 0.00 0.00 82 1024.1
20260906111715 13 18 0.0 0.0 0.00 0.00 0.00 82 1024.0
20260906111210 13 18 0.0 0.0 0.00 0.00 0.00 82 1024.0
20260906110704 13 18 0.0 0.0 0.00 0.00 0.00 82 1023.6
20260906110200 13 18 0.0 0.0 0.00 0.00 0.00 82 1023.9
20260906105654 14 18 0.0 0.0 0.00 0.00 0.00 82 1023.5
20260906105150 14 18 0.0 0.0 0.00 0.00 0.00 82 1023.6
20260906104649 14 18 0.0 0.0 0.00 0.00 0.00 82 1023.4
20260906104143 14 18 0.0 0.0 0.00 0.00 0.00 81 1023.4
20260906103641 14 18 0.0 0.0 0.00 0.00 0.00 81 1023.6
20260906103137 14 18 0.0 0.0 0.00 0.00 0.00 81 1023.5
20260906102632 15 18 0.0 0.0 0.00 0.00 0.00 81 1023.3
20260906102131 15 18 0.0 0.0 0.00 0.00 0.00 81 1023.2
20260906101626 15 18 0.0 0.0 0.00 0.00 0.00 80 1023.5
20260906101126 15 18 0.0 0.0 0.00 0.00 0.00 80 1023.5
20260906100622 15 18 0.0 0.0 0.00 0.00 0.00 80 1023.4
20260906100122 15 18 0.0 0.0 0.00 0.00 0.00 80 1023.4
20260906095616 15 18 0.0 0.0 0.00 0.00 0.00 79 1023.5
20260906095112 15 18 0.0 0.0 0.00 0.00 0.00 79 1023.5
20260906094611 15 18 0.0 0.0 0.00 0.00 0.00 79 1023.2
20260906094107 15 18 0.0 0.0 0.00 0.00 0.00 79 1023.3
20260906093603 15 18 0.0 0.0 0.00 0.00 0.00 79 1023.3
20260906093057 15 18 0.0 0.0 0.00 0.00 0.00 79 1023.3
20260906092553 15 18 0.0 0.0 0.00 0.00 0.00 78 1023.3
20260906092047 15 18 0.0 0.0 0.00 0.00 0.00 79 1023.3
20260906091543 15 18 0.0 0.0 0.00 0.00 0.00 78 1023.4
20260906091039 15 18 0.0 0.0 0.00 0.00 0.00 78 1023.3
20260906090539 15 18 0.0 0.0 0.00 0.00 0.00 78 1023.4
20260906090034 15 18 0.0 0.0 0.00 0.00 0.00 78 1023.3
20260906085533 15 18 0.0 0.0 0.00 0.00 0.00 78 1023.6
20260906085033 15 18 0.0 0.0 0.00 0.00 0.00 78 1023.5
20260906084527 15 18 0.0 0.0 0.00 0.00 0.00 78 1023.3
20260906084026 15 18 0.0 0.0 0.00 0.00 0.00 78 1023.5
20260906083522 15 18 0.0 0.0 0.00 0.00 0.00 78 1023.4
20260906083022 15 18 0.0 0.0 0.00 0.00 0.00 78 1023.3
20260906082517 15 18 0.0 0.0 0.00 0.00 0.00 78 1023.5
20260906082013 15 18 0.0 0.0 0.00 0.00 0.00 77 1023.3
20260906081508 15 18 0.0 0.0 0.00 0.00 0.00 77 1023.3
20260906081004 15 18 0.0 0.0 0.00 0.00 0.00 77 1023.3
20260906080500 15 18 0.0 0.0 0.00 0.00 0.00 77 1023.6
20260906075955 15 18 0.0 0.0 0.00 0.00 0.00 78 1023.6
20260906075450 15 18 0.0 0.0 0.00 0.00 0.00 78 1023.5
20260906074945 15 18 0.0 0.0 0.00 0.00 0.00 78 1023.4
20260906074445 15 18 0.0 0.0 0.00 0.00 0.00 77 1023.5
20260906073943 15 18 0.0 0.0 0.00 0.00 0.00 77 1023.8
20260906073438 15 18 0.0 0.0 0.00 0.00 0.00 77 1023.5
20260906072935 15 18 0.0 0.0 0.00 0.00 0.00 77 1023.4
20260906072430 15 18 0.0 0.0 0.00 0.00 0.00 77 1023.5
20260906071926 15 18 0.0 0.0 0.00 0.00 0.00 77 1023.5
20260906071421 15 18 0.0 0.0 0.00 0.00 0.00 77 1023.4
20260906070918 15 18 0.0 0.0 0.00 0.00 0.00 77 1023.3
20260906070413 15 18 0.0 0.0 0.00 0.00 0.00 77 1023.4
20260906065909 15 18 0.0 0.0 0.00 0.00 0.00 77 1023.4
20260906065403 15 18 0.0 0.0 0.00 0.00 0.00 76 1023.3
20260906064859 15 18 0.0 0.0 0.00 0.00 0.00 76 1023.2
20260906064355 15 18 0.0 0.0 0.00 0.00 0.00 76 1023.2
20260906063854 15 18 0.0 0.0 0.00 0.00 0.00 76 1023.5
20260906063350 15 18 0.0 0.0 0.00 0.00 0.00 75 1023.3
20260906062845 15 18 0.0 0.0 0.00 0.00 0.00 75 1023.4
20260906062344 15 18 0.0 0.0 0.00 0.00 0.00 75 1023.3
20260906061839 15 18 0.0 0.0 0.00 0.00 0.00 75 1023.5
20260906061336 15 18 0.0 0.0 0.00 0.00 0.00 75 1023.4
20260906060830 15 18 0.0 0.0 0.00 0.00 0.00 74 1023.4
20260906060329 15 18 0.0 0.0 0.00 0.00 0.00 74 1023.3
20260906055824 16 18 0.0 0.0 0.00 0.00 0.00 74 1023.3
20260906055320 16 18 0.0 0.0 0.00 0.00 0.00 73 1023.3
20260906054815 16 18 0.0 0.0 0.00 0.00 0.00 73 1023.4
20260906054310 16 18 0.0 0.0 0.00 0.00 0.00 73 1023.4
20260906053806 16 18 0.0 0.0 0.00 0.00 0.00 73 1023.3
20260906053301 16 18 0.0 0.0 0.00 0.00 0.00 73 1023.4
20260906052756 16 18 0.0 1.6 0.00 0.00 0.00 73 1023.1
20260906052253 16 18 0.0 0.0 0.00 0.00 0.00 73 1023.1
20260906051750 16 18 0.0 0.0 0.00 0.00 0.00 73 1023.1
20260906051249 16 18 0.0 0.0 0.00 0.00 0.00 73 1022.8
20260906050744 16 18 0.0 0.0 0.00 0.00 0.00 73 1022.9
20260906050239 16 18 0.0 0.0 0.00 0.00 0.00 73 1022.9
20260906045738 16 18 0.0 0.0 0.00 0.00 0.00 73 1022.6
20260906045233 16 18 0.0 0.0 0.00 0.00 0.00 72 1022.7
20260906044729 16 18 0.0 0.0 0.00 0.00 0.00 72 1022.4
20260906044224 16 18 0.0 0.0 0.00 0.00 0.00 72 1022.6
20260906043720 16 18 0.0 0.0 0.00 0.00 0.00 73 1022.8
20260906043216 16 18 0.0 0.0 0.00 0.00 0.00 72 1022.6
20260906042715 16 18 0.0 0.0 0.00 0.00 0.00 72 1022.7
20260906042214 16 18 0.0 1.6 0.00 0.00 0.00 72 1022.4
20260906041710 16 18 0.0 0.0 0.00 0.00 0.00 72 1022.2
20260906041205 16 18 0.0 0.0 0.00 0.00 0.00 72 1022.3
20260906040701 16 18 0.0 0.0 0.00 0.00 0.00 72 1022.0
20260906040156 16 18 0.0 0.0 0.00 0.00 0.00 72 1022.2
20260906035651 16 18 0.0 0.0 0.00 0.00 0.00 72 1022.4
20260906035147 16 18 0.0 0.0 0.00 0.00 0.00 72 1022.3
20260906034642 16 18 0.0 0.0 0.00 0.00 0.00 71 1022.3
20260906034142 16 18 0.0 0.0 0.00 0.00 0.00 71 1022.4
20260906033638 17 18 0.0 0.0 0.00 0.00 0.00 71 1022.5
20260906033132 17 1 0.0 1.6 0.00 0.00 0.00 71 1022.4
20260906032629 17 359 0.0 1.6 0.00 0.00 0.00 70 1022.1
20260906032128 17 359 0.0 0.0 0.00 0.00 0.00 70 1022.1
20260906031624 17 359 0.0 0.0 0.00 0.00 0.00 70 1022.1
20260906031119 17 359 0.0 0.0 0.00 0.00 0.00 69 1022.1
20260906030618 17 359 0.0 0.0 0.00 0.00 0.00 69 1021.8
20260906030114 17 359 0.0 0.0 0.00 0.00 0.00 69 1021.9
20260906025613 17 359 0.0 0.0 0.00 0.00 0.00 69 1022.1
20260906025112 17 359 0.0 0.0 0.00 0.00 0.00 69 1021.8
20260906024607 18 359 0.0 0.0 0.00 0.00 0.00 68 1021.8
20260906024101 18 359 0.0 0.0 0.00 0.00 0.00 68 1021.7
20260906023557 18 358 0.0 0.0 0.00 0.00 0.00 68 1021.7
20260906023052 18 358 0.0 0.0 0.00 0.00 0.00 68 1021.7
20260906022547 18 358 0.0 0.0 0.00 0.00 0.00 68 1021.7
20260906022043 18 358 0.0 0.0 0.00 0.00 0.00 67 1021.8
20260906021538 18 358 0.0 0.0 0.00 0.00 0.00 67 1021.7
20260906021037 18 358 0.0 0.0 0.00 0.00 0.00 66 1021.8
20260906020537 18 358 0.0 0.0 0.00 0.00 0.00 66 1021.7
20260906020036 18 358 0.0 0.0 0.00 0.00 0.00 65 1021.4
20260906015536 19 358 0.0 0.0 0.00 0.00 0.00 65 1021.4
20260906015036 19 358 0.0 0.0 0.00 0.00 0.00 65 1021.6
20260906014531 19 358 0.0 0.0 0.00 0.00 0.00 64 1021.6
20260906014026 20 358 0.0 0.0 0.00 0.00 0.00 63 1021.7
20260906013522 20 358 0.0 0.0 0.00 0.00 0.00 63 1021.6
20260906013017 20 358 0.0 0.0 0.00 0.00 0.00 62 1021.6
20260906012512 20 358 0.0 0.0 0.00 0.00 0.00 62 1021.7
20260906012012 20 358 0.0 0.0 0.00 0.00 0.00 61 1021.4
20260906011508 20 358 0.0 0.0 0.00 0.00 0.00 61 1021.4
20260906011002 20 358 0.0 0.0 0.00 0.00 0.00 60 1021.3
20260906010458 21 358 0.0 0.0 0.00 0.00 0.00 60 1021.2
20260906005954 21 358 0.0 0.0 0.00 0.00 0.00 60 1021.4
20260906005453 21 358 0.0 0.0 0.00 0.00 0.00 60 1021.3
20260906004951 21 358 0.0 0.0 0.00 0.00 0.00 59 1021.0
20260906004446 21 358 0.0 0.0 0.00 0.00 0.00 60 1021.0
20260906003941 21 358 0.0 0.0 0.00 0.00 0.00 58 1020.9
20260906003436 21 358 0.0 0.0 0.00 0.00 0.00 57 1021.0
20260906002931 21 358 0.0 0.0 0.00 0.00 0.00 58 1020.9
20260906002431 22 358 0.0 1.6 0.00 0.00 0.00 57 1020.9
20260906001926 22 358 0.0 1.6 0.00 0.00 0.00 57 1021.1
20260906001422 22 358 1.6 3.2 0.00 0.00 0.00 56 1020.8
20260906000917 22 351 1.6 1.6 0.00 0.00 0.00 56 1020.9
20260906000412 22 351 0.0 1.6 0.00 0.00 0.00 56 1020.8
20260905235907 22 350 0.0 1.6 0.00 0.00 0.00 56 1021.0
20260905235401 22 350 1.6 3.2 0.00 0.00 0.00 56 1021.0
20260905234856 22 350 0.0 0.0 0.00 0.00 0.00 56 1021.0
20260905234351 22 349 0.0 0.0 0.00 0.00 0.00 56 1020.9
20260905233846 22 349 0.0 0.0 0.00 0.00 0.00 56 1020.9
20260905233341 22 349 0.0 0.0 0.00 0.00 0.00 55 1021.0
20260905232841 23 349 0.0 1.6 0.00 0.00 0.00 55 1020.8
20260905232337 23 349 0.0 0.0 0.00 0.00 0.00 53 1020.9
20260905231832 23 349 0.0 0.0 0.00 0.00 0.00 53 1020.9
20260905231333 23 349 0.0 1.6 0.00 0.00 0.00 52 1021.1
20260905230830 23 349 0.0 1.6 0.00 0.00 0.00 51 1020.9
20260905230327 24 349 0.0 1.6 0.00 0.00 0.00 49 1020.9
20260905225826 24 349 0.0 0.0 0.00 0.00 0.00 49 1021.0
20260905225322 24 347 0.0 0.0 0.00 0.00 0.00 50 1021.0
20260905224822 25 309 1.6 1.6 0.00 0.00 0.00 48 1020.7
20260905224318 25 240 0.0 1.6 0.00 0.00 0.00 49 1020.7
20260905223812 25 240 0.0 0.0 0.00 0.00 0.00 49 1020.8
20260905223310 25 240 0.0 1.6 0.00 0.00 0.00 46 1020.9
20260905222805 25 225 1.6 1.6 0.00 0.00 0.00 45 1020.7
20260905222306 25 357 0.0 0.0 0.00 0.00 0.00 48 1020.8
20260905221800 25 357 0.0 1.6 0.00 0.00 0.00 49 1020.8
20260905221256 25 357 0.0 0.0 0.00 0.00 0.00 47 1020.9
20260905220752 25 353 0.0 1.6 0.00 0.00 0.00 46 1020.7
20260905220248 25 352 0.0 0.0 0.00 0.00 0.00 45 1020.8
20260905215747 25 341 3.2 3.2 0.00 0.00 0.00 45 1020.5
20260905215243 25 240 0.0 1.6 0.00 0.00 0.00 45 1020.9
20260905214739 25 164 0.0 1.6 0.00 0.00 0.00 45 1020.8
20260905214235 25 273 1.6 1.6 0.00 0.00 0.00 45 1020.7
20260905213730 25 200 0.0 0.0 0.00 0.00 0.00 46 1020.8
20260905213226 25 239 1.6 1.6 0.00 0.00 0.00 44 1021.0
20260905212721 25 234 0.0 0.0 0.00 0.00 0.00 45 1021.0
20260905212220 25 187 0.0 1.6 0.00 0.00 0.00 46 1020.9
20260905211714 26 191 0.0 0.0 0.00 0.00 0.00 46 1021.1
20260905211209 26 210 0.0 0.0 0.00 0.00 0.00 46 1021.1
20260905210706 26 277 1.6 1.6 0.00 0.00 0.00 45 1020.9
20260905210206 26 166 0.0 1.6 0.00 0.00 0.00 45 1021.3
20260905205704 26 165 0.0 0.0 0.00 0.00 0.00 47 1021.2
20260905205159 26 199 1.6 1.6 0.00 0.00 0.00 45 1021.4
20260905204659 26 244 0.0 1.6 0.00 0.00 0.00 46 1021.2
20260905204154 26 306 0.0 1.6 0.00 0.00 0.00 44 1021.1
20260905203649 25 264 0.0 0.0 0.00 0.00 0.00 45 1021.0
20260905203144 26 210 1.6 3.2 0.00 0.00 0.00 45 1021.0
20260905202639 26 197 3.2 3.2 0.00 0.00 0.00 45 1020.9
20260905202135 26 195 0.0 0.0 0.00 0.00 0.00 44 1021.0
20260905201630 26 238 3.2 3.2 0.00 0.00 0.00 45 1021.1
20260905201130 26 275 3.2 3.2 0.00 0.00 0.00 43 1021.1
20260905200626 26 240 0.0 1.6 0.00 0.00 0.00 44 1020.8
20260905200121 25 218 1.6 1.6 0.00 0.00 0.00 46 1021.0
20260905195619 25 167 0.0 0.0 0.00 0.00 0.00 48 1021.2
20260905195115 25 167 0.0 0.0 0.00 0.00 0.00 47 1021.2
20260905194615 26 170 0.0 1.6 0.00 0.00 0.00 45 1021.2
20260905194114 27 171 1.6 3.2 0.00 0.00 0.00 44 1021.0
20260905193609 27 208 1.6 1.6 0.00 0.00 0.00 41 1021.0
20260905193104 27 283 0.0 1.6 0.00 0.00 0.00 43 1021.1
20260905192600 27 322 1.6 1.6 0.00 0.00 0.00 41 1021.4
20260905192056 26 244 0.0 1.6 0.00 0.00 0.00 42 1021.3
20260905191554 26 209 3.2 3.2 0.00 0.00 0.00 43 1021.3
20260905191054 26 234 1.6 3.2 0.00 0.00 0.00 43 1021.4
20260905190552 26 262 3.2 3.2 0.00 0.00 0.00 43 1021.7
20260905190051 26 270 1.6 3.2 0.00 0.00 0.00 43 1021.6
20260905185550 26 275 1.6 3.2 0.00 0.00 0.00 44 1021.6
20260905185050 26 9 3.2 3.2 0.00 0.00 0.00 43 1021.6
20260905184544 26 7 4.8 4.8 0.00 0.00 0.00 44 1021.4
20260905184044 26 316 1.6 1.6 0.00 0.00 0.00 44 1021.3
20260905183543 26 164 3.2 3.2 0.00 0.00 0.00 43 1021.4
20260905183033 25 201 1.6 1.6 0.00 0.00 0.00 45 1021.4
20260905182533 26 279 1.6 1.6 0.00 0.00 0.00 45 1021.7
20260905182033 26 237 1.6 3.2 0.00 0.00 0.00 44 1021.7
20260905181527 27 315 0.0 0.0 0.00 0.00 0.00 45 1021.7
20260905181026 27 287 3.2 3.2 0.00 0.00 0.00 40 1021.7
20260905180521 26 266 1.6 1.6 0.00 0.00 0.00 44 1021.9
20260905180017 26 278 0.0 1.6 0.00 0.00 0.00 44 1021.8
20260905175516 26 343 3.2 3.2 0.00 0.00 0.00 45 1021.9
20260905175012 25 233 3.2 3.2 0.00 0.00 0.00 45 1022.0
20260905174507 25 339 3.2 3.2 0.00 0.00 0.00 46 1022.0
20260905174003 25 229 3.2 3.2 0.00 0.00 0.00 46 1021.8
20260905173459 24 256 0.0 0.0 0.00 0.00 0.00 48 1022.0
20260905172954 24 226 3.2 3.2 0.00 0.00 0.00 49 1022.0
20260905172452 24 219 4.8 4.8 0.00 0.00 0.00 48 1021.7
20260905171948 23 230 1.6 3.2 0.00 0.00 0.00 48 1022.1
20260905171444 24 221 4.8 4.8 0.00 0.00 0.00 47 1021.8
20260905170940 23 255 3.2 4.8 0.00 0.00 0.00 47 1021.8
20260905170437 23 243 1.6 3.2 0.00 0.00 0.00 51 1021.9
20260905165936 23 226 1.6 3.2 0.00 0.00 0.00 51 1022.1
20260905165431 23 195 1.6 1.6 0.00 0.00 0.00 49 1022.0
20260905164926 23 226 3.2 3.2 0.00 0.00 0.00 50 1022.4
20260905164425 23 255 6.4 8.0 0.00 0.00 0.00 48 1022.5
20260905163921 23 226 3.2 3.2 0.00 0.00 0.00 50 1022.3
20260905163417 22 226 1.6 1.6 0.00 0.00 0.00 52 1022.2
20260905162913 23 241 3.2 3.2 0.00 0.00 0.00 52 1022.4
20260905162408 23 209 3.2 3.2 0.00 0.00 0.00 51 1022.3
20260905161903 23 250 1.6 1.6 0.00 0.00 0.00 50 1022.3